This is the latest recevied weather packets stored in our database for station/object W6ORV. If no packets are shown the sender has not sent any weather packets the latest 10 day(s).
| Time | Temp. | Humidity | Pressure | Rain* | Wind** | Luminosity | Snow |
|---|---|---|---|---|---|---|---|
| 1778123058 | 19.44° C | 62% | 4301.8 hPa | 0 mm | - | 0 W/m² | - |
| 1778122755 | 20° C | 61% | 4302 hPa | 0 mm | - | 0 W/m² | - |
| 1778122452 | 20° C | 60% | 4301.7 hPa | 0 mm | - | 1 W/m² | - |
| 1778122150 | 20.56° C | 60% | 4301.7 hPa | 0 mm | - | 4 W/m² | - |
| 1778121847 | 21.11° C | 58% | 4301.8 hPa | 0 mm | - | 6 W/m² | - |
| 1778121543 | 21.11° C | 58% | 4301.7 hPa | 0 mm | - | 10 W/m² | - |
| 1778121240 | 21.67° C | 57% | 4301.4 hPa | 0 mm | - | 13 W/m² | - |
| 1778120937 | 21.67° C | 56% | 4301.7 hPa | 0 mm | - | 17 W/m² | - |
| 1778120633 | 22.22° C | 56% | 4301.4 hPa | 0 mm | - | 22 W/m² | - |
| 1778120329 | 22.22° C | 55% | 4301.4 hPa | 0 mm | - | 26 W/m² | - |
| 1778120025 | 22.78° C | 54% | 4301.5 hPa | 0 mm | - | 30 W/m² | - |
| 1778119723 | 22.78° C | 53% | 4301.3 hPa | 0 mm | - | 35 W/m² | - |
| 1778119419 | 23.33° C | 53% | 4301.3 hPa | 0 mm | - | 39 W/m² | - |
| 1778119116 | 23.33° C | 52% | 4301 hPa | 0 mm | - | 44 W/m² | - |
| 1778118814 | 23.89° C | 53% | 4301.3 hPa | 0 mm | - | 49 W/m² | - |
| 1778118511 | 23.89° C | 51% | 4301.1 hPa | 0 mm | - | 42 W/m² | - |
| 1778118207 | 23.89° C | 51% | 4300.9 hPa | 0 mm | - | 78 W/m² | - |
| 1778117904 | 23.89° C | 51% | 4300.9 hPa | 0 mm | - | 45 W/m² | - |
| 1778117601 | 23.89° C | 52% | 4301 hPa | 0 mm | - | 117 W/m² | - |
| 1778117299 | 23.89° C | 52% | 4300.8 hPa | 0 mm | - | 125 W/m² | - |
| 1778116995 | 24.44° C | 52% | 4301 hPa | 0 mm | - | 140 W/m² | - |
| 1778116692 | 25° C | 51% | 4300.9 hPa | 0 mm | - | 165 W/m² | - |
| 1778116389 | 25.56° C | 49% | 4300.8 hPa | 0 mm | - | 166 W/m² | - |
| 1778116088 | 26.11° C | 47% | 4300.8 hPa | 0 mm | - | 191 W/m² | - |
| 1778115784 | 25.56° C | 48% | 4300.6 hPa | 0 mm | - | 209 W/m² | - |
* Rain latest hour (hover to see other rain measurements)
** Current wind speed in m/s (hover to see current wind gust speed)